This is the latest recevied weather packets stored in our database for station/object N1HRK. If no packets are shown the sender has not sent any weather packets the latest 1 day(s).
| Time | Temp. | Humidity | Pressure | Rain* | Wind** | Luminosity | Snow |
|---|---|---|---|---|---|---|---|
| 1777993322 | 17.22° C | 63% | 1011.1 hPa | 0 mm | 3.13 m/s, 255° | - | - |
| 1777992753 | 17.78° C | 64% | 1011.2 hPa | 0 mm | 1.34 m/s, 280° | - | - |
| 1777992722 | 17.78° C | 65% | 1011.2 hPa | 0 mm | 2.24 m/s, 236° | - | - |
| 1777992124 | 17.78° C | 66% | 1011.2 hPa | 0 mm | 1.79 m/s, 229° | - | - |
| 1777991523 | 17.78° C | 65% | 1011.3 hPa | 0 mm | 1.79 m/s, 239° | - | - |
| 1777990923 | 17.78° C | 63% | 1011.2 hPa | 0 mm | 1.34 m/s, 226° | - | - |
| 1777990352 | 18.33° C | 64% | 1011.1 hPa | 0 mm | 1.34 m/s, 266° | - | - |
| 1777990322 | 17.78° C | 63% | 1011.1 hPa | 0 mm | 0.89 m/s, 210° | - | - |
| 1777989723 | 18.33° C | 64% | 1011.2 hPa | 0 mm | 1.34 m/s, 249° | - | - |
| 1777989123 | 18.89° C | 64% | 1011.2 hPa | 0 mm | 0.89 m/s, 231° | - | - |
| 1777988523 | 17.78° C | 64% | 1011.1 hPa | 0 mm | 1.79 m/s, 248° | - | - |
| 1777987922 | 17.78° C | 67% | 1011.3 hPa | 0 mm | 1.34 m/s, 218° | - | - |
| 1777987323 | 17.22° C | 68% | 1011.3 hPa | 0 mm | 1.79 m/s, 276° | - | - |
| 1777986722 | 16.67° C | 71% | 1011.4 hPa | 0 mm | 1.34 m/s, 269° | - | - |
| 1777986124 | 16.11° C | 73% | 1011.5 hPa | 0 mm | 1.79 m/s, 260° | - | - |
| 1777985523 | 15.56° C | 74% | 1011.5 hPa | 0 mm | 1.34 m/s, 257° | - | - |
| 1777984923 | 15° C | 76% | 1011.6 hPa | 0 mm | 2.24 m/s, 302° | - | - |
| 1777984323 | 15° C | 77% | 1011.8 hPa | 0 mm | 1.79 m/s, 266° | - | - |
| 1777983724 | 14.44° C | 78% | 1011.5 hPa | 0 mm | 2.24 m/s, 243° | - | - |
| 1777983154 | 14.44° C | 80% | 1011.6 hPa | 0 mm | 2.68 m/s, 243° | - | - |
| 1777983123 | 14.44° C | 80% | 1011.6 hPa | 0 mm | 2.68 m/s, 243° | - | - |
| 1777982523 | 13.89° C | 82% | 1011.5 hPa | 0 mm | 1.79 m/s, 260° | - | - |
| 1777981923 | 13.33° C | 83% | 1011.5 hPa | 0 mm | 1.34 m/s, 300° | - | - |
| 1777981359 | 12.78° C | 85% | 1011.6 hPa | 0 mm | 3.13 m/s, 242° | - | - |
| 1777981322 | 12.78° C | 85% | 1011.6 hPa | 0 mm | 3.13 m/s, 242° | - | - |
* Rain latest hour (hover to see other rain measurements)
** Current wind speed in m/s (hover to see current wind gust speed)